Regional Weather Roundup
Issued by NWS Kansas City/Pleasant Hill, MO

Home | Current Version | Previous Version | Text Only | Print | Product List | Glossary On
Versions: 1 2 3 4 5 6 7 8 9 10 11 12 13 14 15 16 17 18 19 20 21 22 23 24 25 26 27 28 29 30 31 32 33 34 35 36 37 38 39 40 41 42 43 44 45 46 47 48 49 50
000
ASUS43 KEAX 121010
RWREAX

WEATHER ROUNDUP FOR EASTERN KANSAS AND NORTHWEST MISSOURI
NATIONAL WEATHER SERVICE KANSAS CITY/PLEASANT HILL MO
400 AM CST FRI FEB 12 2016

KSZ040-057-103>105-MOZ028-029-037-043-121100-
...KANSAS CITY METROPOLITAN AREA...

CITY           SKY/WX    TMP DP  RH WIND       PRES   REMARKS
K.C. INTL      CLOUDY    29  21  72 NE7       30.21R WCI  22
K.C. DOWNTOWN  CLOUDY    31  21  66 E6        30.22R WCI  25
LEES SUMMIT    CLOUDY    29  21  72 NE6       30.20R WCI  23
OLATHE - IXD   CLOUDY    29  23  78 N3        30.20R
OLATHE - OJC   CLOUDY    30  21  69 NE3       30.19R
LAWRENCE       MOCLDY    26  22  84 NW3       30.22R

$$

MOZ001>008-011>017-020>025-030>033-038>040-044>046-053-054-121100-
...NORTHERN AND CENTRAL MISSOURI...

CITY           SKY/WX    TMP DP  RH WIND       PRES   REMARKS
ST. JOSEPH     CLOUDY    27  21  78 N5        30.25R WCI  22
MOSBY            N/A     30  21  69 N3        30.22S
WARRENSBURG    CLOUDY    28  25  86 N6        30.21R WCI  22
WHITEMAN AFB   CLOUDY    28  25  87 NE6       30.19R WCI  22
CLINTON          N/A     32  27  80 NE3       30.20R
SEDALIA        CLOUDY    29  24  82 E3        30.21R
WARSAW         NOT AVBL
CHILLICOTHE      N/A     27  17  66 CALM      30.24R
KIRKSVILLE     CLOUDY    21  16  81 CALM      30.21S

$$

MOZ041-047>049-056>058-063>065-088>090-097-121100-
...EASTERN AND SOUTHERN MISSOURI...

CITY           SKY/WX    TMP DP  RH WIND       PRES   REMARKS
ST. LOUIS INTL FLURRIES  26  21  81 E3        30.21F
SPIRIT OF STL  CLOUDY    25  21  85 NE6       30.20F WCI  18
COLUMBIA       CLOUDY    26  23  88 CALM      30.19R
JEFFERSON CITY CLOUDY    27  23  85 CALM      30.21S
ROLLA          CLOUDY    27  22  81 NE3       30.14S
OSAGE BEACH    CLOUDY    28  19  69 NE3       30.18S
SPRINGFIELD    CLEAR     30  20  66 N5        30.15R WCI  25
BRANSON        CLEAR     36  23  60 W3        30.15R
JOPLIN         CLEAR     27  22  81 S6        30.17R WCI  20
WEST PLAINS    CLOUDY    28  19  69 NE3       30.16R

$$

IAZ060-094-KSZ022-034>040-054-083-096-NEZ052-066-093-121100-
...KANSAS...SOUTHEAST NEBRASKA AND IOWA...

CITY           SKY/WX    TMP DP  RH WIND       PRES   REMARKS
TOPEKA         PTCLDY    28  21  75 W5        30.23R WCI  23
MANHATTAN      CLEAR     26  23  88 NW5       30.26R WCI  20
EMPORIA        CLOUDY    26  22  84 NW6       30.20R WCI  19
CHANUTE        CLEAR     30  23  75 W6        30.19R WCI  24
WICHITA        PTCLDY    31  26  82 NW7       30.22R WCI  24
OMAHA          CLOUDY    23  19  85 N15       30.29R WCI  10
LINCOLN        CLOUDY    28  24  85 N18       30.29R WCI  15
FALLS CITY     CLOUDY    29  22  75 NW3       30.25R
LAMONI         CLOUDY    22  18  85 W6        30.22R WCI  14
DES MOINES     FLURRIES  20  16  84 NW8       30.23R WCI  10

$$




USA.gov is the U.S. government's official web portal to all federal, state and local government web resources and services.